Estación Meteorológica Peña el Pijo (Robertgarden) [ 09/30/20 11:50:43 CEST ]

Fecha Hora Presion(HPa) Temp (°C) Humedad % Rocio (°C) Viento ( m/s) Direccion Lluvia 1Hora(mm) Lluvia 24H(mm) LLuvia Total(mm)
2020-May-07 01:08:57 1010.100 - - - - W     39.88
2020-May-07 02:09:22 1009.900 - - - - W     39.88
2020-May-07 03:09:13 1009.500 - - - - W     39.88
2020-May-07 04:09:16 1009.200 - - - - W     39.88
2020-May-07 05:09:31 1008.900 - - - - W     39.88
2020-May-07 06:09:29 1008.400 - - - - W     39.88
2020-May-07 07:09:39 1009.000 - - - - W     39.88
2020-May-07 08:09:34 1009.100 - - - - W     39.88
2020-May-07 09:09:24 1009.200 - - - - W     39.88
2020-May-07 10:09:20 1009.700 - - - - W     39.88
2020-May-07 11:09:17 1010.000 - - - - W     39.88
2020-May-07 12:09:22 1010.000 - - - - W     39.88
2020-May-07 13:09:15 1010.000 - - - - W     39.88
2020-May-07 14:09:29 1009.500 - - - - W     39.88
2020-May-07 15:09:24 1008.900 - - - - W     39.88
2020-May-07 16:09:18 1008.600 - - - - W     39.88
2020-May-07 17:09:24 1008.600 - - - - W     39.88
2020-May-07 18:09:20 1008.800 - - - - W     39.88
2020-May-07 19:08:40 1009.100 - - - - W     39.88
2020-May-07 20:08:55 1009.300 - - - - W     39.88
2020-May-07 21:08:51 1009.500 - - - - W     39.88
2020-May-07 22:09:21 1009.700 - - - - W     39.88
2020-May-07 23:09:08 1010.200 - - - - W     39.88

Temperatura Máxima:    Temperatura Mínima:
Presión Máxima:1010.200 Hpa    Presión Mínima:1008.400 Hpa


Volver